Time,TemperatureF,DewpointF,PressureIn,WindDirection,WindDirectionDegrees,WindSpeedMPH,WindSpeedGustMPH,Humidity,HourlyPrecipIn,Conditions,Clouds,dailyrainin,SoftwareType,DateUTC
2013-01-18 00:10:00,39.6,31.0,30.02,WNW,295,4.0,9.0,71,0.00,,,0.03,weatherlink.com 1.10,2013-01-18 05:10:00,
2013-01-18 00:25:00,39.4,31.0,30.00,NW,314,2.0,9.0,72,0.00,,,0.03,weatherlink.com 1.10,2013-01-18 05:25:00,
2013-01-18 00:40:00,39.4,31.0,30.04,WNW,284,4.0,6.0,73,0.00,,,0.03,weatherlink.com 1.10,2013-01-18 05:40:00,
2013-01-18 00:55:00,39.4,31.0,30.06,West,271,5.0,10.0,72,0.00,,,0.03,weatherlink.com 1.10,2013-01-18 05:55:00,
2013-01-18 01:10:00,39.4,31.0,30.06,WNW,287,7.0,8.0,73,0.00,,,0.00,weatherlink.com 1.10,2013-01-18 06:10:00,
2013-01-18 01:25:00,39.3,31.0,30.06,West,280,5.0,7.0,72,0.00,,,0.00,weatherlink.com 1.10,2013-01-18 06:25:00,
2013-01-18 01:40:00,39.0,31.0,30.06,WNW,290,5.0,9.0,73,0.00,,,0.00,weatherlink.com 1.10,2013-01-18 06:40:00,
2013-01-18 01:55:00,38.8,31.0,30.06,WNW,298,5.0,8.0,73,0.00,,,0.00,weatherlink.com 1.10,2013-01-18 06:55:00,
2013-01-18 02:10:00,38.8,31.0,30.08,West,280,5.0,9.0,73,0.00,,,0.00,weatherlink.com 1.10,2013-01-18 07:10:00,
2013-01-18 02:25:00,38.7,31.0,30.08,WNW,287,5.0,8.0,73,0.00,,,0.00,weatherlink.com 1.10,2013-01-18 07:25:00,
2013-01-18 02:40:00,38.6,30.0,30.08,WNW,285,7.0,7.0,72,0.00,,,0.00,weatherlink.com 1.10,2013-01-18 07:40:00,
2013-01-18 02:55:00,38.3,30.0,30.09,West,276,5.0,7.0,73,0.00,,,0.00,weatherlink.com 1.10,2013-01-18 07:55:00,
2013-01-18 03:10:00,37.9,30.0,30.10,West,269,4.0,7.0,74,0.00,,,0.00,weatherlink.com 1.10,2013-01-18 08:10:00,
2013-01-18 03:25:00,37.7,30.0,30.10,West,270,4.0,8.0,74,0.00,,,0.00,weatherlink.com 1.10,2013-01-18 08:25:00,
2013-01-18 03:40:00,37.6,30.0,30.10,West,271,4.0,6.0,75,0.00,,,0.00,weatherlink.com 1.10,2013-01-18 08:40:00,
2013-01-18 03:55:00,37.4,29.0,30.10,WNW,287,5.0,9.0,73,0.00,,,0.00,weatherlink.com 1.10,2013-01-18 08:55:00,
2013-01-18 04:10:00,37.5,29.0,30.11,WNW,287,7.0,11.0,72,0.00,,,0.00,weatherlink.com 1.10,2013-01-18 09:10:00,
2013-01-18 04:25:00,37.5,29.0,30.11,WNW,301,7.0,12.0,70,0.00,,,0.00,weatherlink.com 1.10,2013-01-18 09:25:00,
2013-01-18 04:40:00,37.2,28.0,30.12,West,281,6.0,10.0,70,0.00,,,0.00,weatherlink.com 1.10,2013-01-18 09:40:00,
2013-01-18 04:55:00,37.1,28.0,30.13,WNW,298,8.0,12.0,69,0.00,,,0.00,weatherlink.com 1.10,2013-01-18 09:55:00,
2013-01-18 05:10:00,37.1,28.0,30.14,WNW,288,10.0,11.0,69,0.00,,,0.00,weatherlink.com 1.10,2013-01-18 10:10:00,
2013-01-18 05:25:00,37.8,26.0,30.15,WNW,294,15.0,24.0,63,0.00,,,0.00,weatherlink.com 1.10,2013-01-18 10:25:00,
2013-01-18 05:40:00,38.2,27.0,30.16,WNW,290,10.0,25.0,64,0.00,,,0.00,weatherlink.com 1.10,2013-01-18 10:40:00,
2013-01-18 05:55:00,37.9,27.0,30.18,NW,304,9.0,18.0,65,0.00,,,0.00,weatherlink.com 1.10,2013-01-18 10:55:00,
2013-01-18 06:10:00,37.6,27.0,30.19,NW,318,17.0,22.0,67,0.00,,,0.00,weatherlink.com 1.10,2013-01-18 11:10:00,
2013-01-18 06:26:00,37.3,27.0,30.20,NW,308,13.0,22.0,67,0.00,,,0.00,weatherlink.com 1.10,2013-01-18 11:26:00,
2013-01-18 06:41:00,37.1,25.0,30.22,WNW,294,12.0,25.0,62,0.00,,,0.00,weatherlink.com 1.10,2013-01-18 11:41:00,
2013-01-18 06:56:00,36.8,24.0,30.23,NW,316,14.0,20.0,60,0.00,,,0.00,weatherlink.com 1.10,2013-01-18 11:56:00,
2013-01-18 07:11:00,36.3,24.0,30.25,NW,306,9.0,23.0,61,0.00,,,0.00,weatherlink.com 1.10,2013-01-18 12:11:00,
2013-01-18 07:26:00,35.8,23.0,30.27,NW,312,14.0,23.0,59,0.00,,,0.00,weatherlink.com 1.10,2013-01-18 12:26:00,
2013-01-18 07:41:00,35.6,22.0,30.28,WNW,297,17.0,27.0,59,0.00,,,0.00,weatherlink.com 1.10,2013-01-18 12:41:00,
2013-01-18 07:57:00,35.5,21.0,30.31,NW,307,11.0,27.0,57,0.00,,,0.00,weatherlink.com 1.10,2013-01-18 12:57:00,
2013-01-18 08:11:00,35.2,21.0,30.32,NW,311,16.0,25.0,56,0.00,,,0.00,weatherlink.com 1.10,2013-01-18 13:11:00,
2013-01-18 08:26:00,34.9,20.0,30.33,NW,308,11.0,21.0,54,0.00,,,0.00,weatherlink.com 1.10,2013-01-18 13:26:00,
2013-01-18 08:41:00,34.9,21.0,30.35,NW,304,12.0,16.0,57,0.00,,,0.00,weatherlink.com 1.10,2013-01-18 13:41:00,
2013-01-18 08:56:00,34.7,20.0,30.36,NW,315,16.0,19.0,55,0.00,,,0.00,weatherlink.com 1.10,2013-01-18 13:56:00,
2013-01-18 09:11:00,34.7,19.0,30.38,NW,308,10.0,16.0,53,0.00,,,0.00,weatherlink.com 1.10,2013-01-18 14:11:00,
2013-01-18 09:26:00,34.4,16.0,30.39,NW,306,10.0,25.0,48,0.00,,,0.00,weatherlink.com 1.10,2013-01-18 14:26:00,
2013-01-18 09:41:00,34.1,17.0,30.40,WNW,294,18.0,20.0,49,0.00,,,0.00,weatherlink.com 1.10,2013-01-18 14:41:00,
2013-01-18 09:56:00,34.5,18.0,30.41,WNW,298,11.0,22.0,51,0.00,,,0.00,weatherlink.com 1.10,2013-01-18 14:56:00,
2013-01-18 10:11:00,34.7,19.0,30.41,NW,306,10.0,20.0,52,0.00,,,0.00,weatherlink.com 1.10,2013-01-18 15:11:00,
2013-01-18 10:26:00,34.5,18.0,30.42,WNW,296,14.0,21.0,51,0.00,,,0.00,weatherlink.com 1.10,2013-01-18 15:26:00,
2013-01-18 10:41:00,34.5,17.0,30.42,NW,308,17.0,21.0,49,0.00,,,0.00,weatherlink.com 1.10,2013-01-18 15:41:00,
2013-01-18 10:56:00,34.1,16.0,30.42,WNW,302,9.0,20.0,48,0.00,,,0.00,weatherlink.com 1.10,2013-01-18 15:56:00,
2013-01-18 11:11:00,34.1,14.0,30.42,NW,322,15.0,24.0,44,0.00,,,0.00,weatherlink.com 1.10,2013-01-18 16:11:00,
2013-01-18 11:26:00,34.1,16.0,30.41,NW,308,13.0,19.0,47,0.00,,,0.00,weatherlink.com 1.10,2013-01-18 16:26:00,
2013-01-18 11:41:00,34.1,17.0,30.42,WNW,303,12.0,19.0,49,0.00,,,0.00,weatherlink.com 1.10,2013-01-18 16:41:00,
2013-01-18 11:56:00,34.3,16.0,30.41,NNW,333,10.0,17.0,47,0.00,,,0.00,weatherlink.com 1.10,2013-01-18 16:56:00,
2013-01-18 12:11:00,34.2,16.0,30.42,NNW,332,9.0,17.0,47,0.00,,,0.00,weatherlink.com 1.10,2013-01-18 17:11:00,
2013-01-18 12:27:00,34.3,15.0,30.41,WNW,288,16.0,16.0,46,0.00,,,0.00,weatherlink.com 1.10,2013-01-18 17:27:00,
2013-01-18 12:42:00,34.1,14.0,30.41,WNW,296,8.0,20.0,43,0.00,,,0.00,weatherlink.com 1.10,2013-01-18 17:42:00,
2013-01-18 12:57:00,34.2,13.0,30.41,WNW,295,6.0,17.0,41,0.00,,,0.00,weatherlink.com 1.10,2013-01-18 17:57:00,
2013-01-18 13:12:00,34.3,10.0,30.41,WNW,302,10.0,17.0,36,0.00,,,0.00,weatherlink.com 1.10,2013-01-18 18:12:00,
2013-01-18 13:27:00,34.4,13.0,30.41,WNW,296,7.0,14.0,41,0.00,,,0.00,weatherlink.com 1.10,2013-01-18 18:27:00,
2013-01-18 13:42:00,34.6,12.0,30.41,NW,306,9.0,16.0,40,0.00,,,0.00,weatherlink.com 1.10,2013-01-18 18:42:00,
2013-01-18 13:57:00,34.5,11.0,30.42,NW,304,7.0,14.0,38,0.00,,,0.00,weatherlink.com 1.10,2013-01-18 18:57:00,
2013-01-18 14:12:00,34.8,12.0,30.43,NW,309,5.0,14.0,39,0.00,,,0.00,weatherlink.com 1.10,2013-01-18 19:12:00,
2013-01-18 14:27:00,34.9,11.0,30.43,NNW,343,7.0,13.0,38,0.00,,,0.00,weatherlink.com 1.10,2013-01-18 19:27:00,
2013-01-18 14:42:00,35.2,12.0,30.43,NNW,335,10.0,14.0,38,0.00,,,0.00,weatherlink.com 1.10,2013-01-18 19:42:00,
2013-01-18 14:57:00,35.4,12.0,30.43,NW,315,10.0,15.0,38,0.00,,,0.00,weatherlink.com 1.10,2013-01-18 19:57:00,
2013-01-18 15:12:00,35.7,12.0,30.44,WNW,296,7.0,12.0,37,0.00,,,0.00,weatherlink.com 1.10,2013-01-18 20:12:00,
2013-01-18 15:27:00,35.9,10.0,30.44,WNW,293,10.0,10.0,34,0.00,,,0.00,weatherlink.com 1.10,2013-01-18 20:27:00,
2013-01-18 15:42:00,35.8,12.0,30.44,NNW,333,6.0,13.0,38,0.00,,,0.00,weatherlink.com 1.10,2013-01-18 20:42:00,
2013-01-18 16:12:00,36.7,14.0,30.45,SSE,163,1.0,8.0,40,0.00,,,0.00,weatherlink.com 1.10,2013-01-18 21:12:00,
2013-01-18 16:27:00,36.2,14.0,30.45,WNW,289,6.0,12.0,40,0.00,,,0.00,weatherlink.com 1.10,2013-01-18 21:27:00,
2013-01-18 16:42:00,35.9,13.0,30.46,West,276,6.0,10.0,39,0.00,,,0.00,weatherlink.com 1.10,2013-01-18 21:42:00,
2013-01-18 16:57:00,35.6,12.0,30.47,WNW,290,5.0,12.0,38,0.00,,,0.00,weatherlink.com 1.10,2013-01-18 21:57:00,
2013-01-18 17:12:00,35.0,10.0,30.47,WNW,293,4.0,10.0,36,0.00,,,0.00,weatherlink.com 1.10,2013-01-18 22:12:00,
2013-01-18 17:27:00,34.9,12.0,30.47,WNW,282,3.0,5.0,39,0.00,,,0.00,weatherlink.com 1.10,2013-01-18 22:27:00,
2013-01-18 17:42:00,34.6,11.0,30.47,West,281,2.0,4.0,38,0.00,,,0.00,weatherlink.com 1.10,2013-01-18 22:42:00,
2013-01-18 17:57:00,34.4,12.0,30.47,SSW,197,1.0,3.0,40,0.00,,,0.00,weatherlink.com 1.10,2013-01-18 22:57:00,
2013-01-18 18:12:00,33.9,12.0,30.47,WSW,238,0.0,2.0,40,0.00,,,0.00,weatherlink.com 1.10,2013-01-18 23:12:00,
2013-01-18 18:27:00,33.3,10.0,30.47,SSW,204,1.0,1.0,38,0.00,,,0.00,weatherlink.com 1.10,2013-01-18 23:27:00,
2013-01-18 18:42:00,33.1,10.0,30.47,South,189,1.0,1.0,39,0.00,,,0.00,weatherlink.com 1.10,2013-01-18 23:42:00,
2013-01-18 18:57:00,32.9,11.0,30.46,SSE,158,1.0,1.0,40,0.00,,,0.00,weatherlink.com 1.10,2013-01-18 23:57:00,
2013-01-18 19:12:00,33.1,15.0,30.46,SSE,165,2.0,3.0,48,0.00,,,0.00,weatherlink.com 1.10,2013-01-19 00:12:00,
2013-01-18 19:27:00,32.9,13.0,30.46,SSE,160,2.0,3.0,44,0.00,,,0.00,weatherlink.com 1.10,2013-01-19 00:27:00,
2013-01-18 19:42:00,32.8,14.0,30.46,SSE,168,2.0,2.0,46,0.00,,,0.00,weatherlink.com 1.10,2013-01-19 00:42:00,
2013-01-18 19:57:00,32.7,14.0,30.45,South,176,2.0,3.0,46,0.00,,,0.00,weatherlink.com 1.10,2013-01-19 00:57:00,
2013-01-18 20:12:00,32.4,15.0,30.46,SSW,208,1.0,3.0,48,0.00,,,0.00,weatherlink.com 1.10,2013-01-19 01:12:00,
2013-01-18 20:27:00,32.4,15.0,30.45,SSW,205,1.0,2.0,49,0.00,,,0.00,weatherlink.com 1.10,2013-01-19 01:27:00,
2013-01-18 20:42:00,32.4,16.0,30.45,SSW,207,1.0,2.0,52,0.00,,,0.00,weatherlink.com 1.10,2013-01-19 01:42:00,
2013-01-18 20:57:00,32.5,17.0,30.45,SSW,204,1.0,2.0,53,0.00,,,0.00,weatherlink.com 1.10,2013-01-19 01:57:00,
2013-01-18 21:12:00,32.8,18.0,30.46,SSW,210,1.0,2.0,54,0.00,,,0.00,weatherlink.com 1.10,2013-01-19 02:12:00,
2013-01-18 21:42:00,32.3,19.0,30.46,SW,217,0.0,3.0,58,0.00,,,0.00,weatherlink.com 1.10,2013-01-19 02:42:00,
2013-01-18 21:57:00,32.0,18.0,30.45,South,188,1.0,3.0,57,0.00,,,0.00,weatherlink.com 1.10,2013-01-19 02:57:00,
2013-01-18 22:12:00,32.0,20.0,30.45,SE,143,2.0,3.0,61,0.00,,,0.00,weatherlink.com 1.10,2013-01-19 03:12:00,
2013-01-18 22:27:00,32.4,20.0,30.44,SSW,200,2.0,6.0,60,0.00,,,0.00,weatherlink.com 1.10,2013-01-19 03:27:00,
2013-01-18 22:42:00,32.9,19.0,30.44,SW,224,2.0,7.0,57,0.00,,,0.00,weatherlink.com 1.10,2013-01-19 03:42:00,
2013-01-18 22:57:00,33.3,18.0,30.43,SSE,162,7.0,8.0,53,0.00,,,0.00,weatherlink.com 1.10,2013-01-19 03:57:00,
2013-01-18 23:12:00,33.7,18.0,30.42,SSW,195,6.0,9.0,54,0.00,,,0.00,weatherlink.com 1.10,2013-01-19 04:12:00,
2013-01-18 23:27:00,34.1,20.0,30.42,SSE,151,3.0,9.0,57,0.00,,,0.00,weatherlink.com 1.10,2013-01-19 04:27:00,
2013-01-18 23:42:00,34.3,20.0,30.41,SE,129,5.0,11.0,57,0.00,,,0.00,weatherlink.com 1.10,2013-01-19 04:42:00,
2013-01-18 23:57:00,34.4,20.0,30.40,WSW,248,5.0,11.0,57,0.00,,,0.00,weatherlink.com 1.10,2013-01-19 04:57:00,